Location: Heidgraben
(53.7081°N, 9.6576°E)
Time: 08:35:00
(UTC+00:00)

Cosmos 1818 - Pass Details

Date: 05 July 2020
Orbit: 777 x 796 km, 65.0° (Epoch: 14 August)

Event Time Altitude Azimuth Distance (km) Brightness Sun altitude
Rises 20:48:32 0° 217° (SW) 3,272 6.6 -6.4°
Reaches altitude 10° 20:50:56 10° 217° (SW) 2,350 5.9 -6.6°
Maximum altitude 20:56:20 79° 132° (SE) 814 3.6 -7.1°
Drops below altitude 10° 21:01:48 10° 46° (NE) 2,374 6.2 -7.5°
Sets 21:04:14 0° 45° (NE) 3,309 7.0 -7.7°
